This demonstration page uses our WeatherBlox Daily Observations layout. Learn more.

Left ArrowRight Arrow

Hourly Observations for May 11, 2022

Temp ( °F °C ) Dew Point ( °F °C ) Humidity (%) Winds ( mph kmh ) Pressure ( in mb ) Visibility ( mi km ) Precip ( " mm )
12:52 am 00:52 Clear 70 21.1 60 15.6 71 71 NW 5 7 29.91 1013 10 16 0.00 0.00
1:52 am 01:52 Partly Cloudy 73 22.8 62 16.7 69 69 S 3 6 29.91 1013 10 16 0.00 0.00
2:13 am 02:13 Mostly Cloudy 76 24.4 69 20.6 79 79 SSE 10 17 29.89 1012 10 16 0.00 0.00
2:43 am 02:43 Partly Cloudy 78 25.6 73 22.8 85 85 SSE 15 24 29.88 1012 10 16 0.00 0.00
2:52 am 02:52 Mostly Cloudy 78 25.6 73 22.8 85 85 S 14 22 29.91 1013 10 16 0.00 0.00
3:52 am 03:52 Mostly Cloudy 78 25.6 73 22.8 85 85 S 14 22 29.93 1013 7 11 0.00 0.00
4:30 am 04:30 Mostly Cloudy 78 25.6 73 22.8 85 85 S 13 20 29.92 1013 7 11 0.00 0.00
4:52 am 04:52 Mostly Cloudy with Mist and Fog 78 25.6 73 22.8 85 85 S 15 24 29.94 1014 6 10 0.00 0.00
5:26 am 05:26 Cloudy with Mist and Fog 78 25.6 74 23.3 87 87 S 13 20 29.93 1014 6 10 0.00 0.00
5:52 am 05:52 Cloudy with Mist and Fog 78 25.6 73 22.8 85 85 SSE 10 17 29.95 1014 5 8 0.00 0.00
6:50 am 06:50 Mostly Cloudy with Mist and Fog 77 25 73 23 89 89 SSE 8 13 29.94 1014 6 10 0.00 0.00
6:52 am 06:52 Mostly Cloudy with Mist and Fog 77 25 73 22.8 88 88 SSE 8 13 29.96 1014 6 10 0.00 0.00
7:37 am 07:37 Mostly Cloudy with Mist and Fog 79 26.1 73 22.8 82 82 SSE 8 13 29.95 1014 6 10 0.00 0.00
7:52 am 07:52 Cloudy with Mist and Fog 79 26.1 73 22.8 82 82 S 10 17 29.98 1015 6 10 0.00 0.00
8:52 am 08:52 Cloudy with Haze 79 26.1 73 22.8 82 82 S 14 22 29.98 1015 5 8 0.00 0.00
9:52 am 09:52 Mostly Cloudy with Haze 80 26.7 72 22.2 76 76 S 15 24 29.98 1015 5 8 0.00 0.00
10:33 am 10:33 Hazy 81 27.2 72 22.2 74 74 SSE 12 19 29.93 1013 6 10 0.00 0.00
10:52 am 10:52 Partly Cloudy 82 27.8 71 21.7 69 69 ESE 9 15 29.94 1014 7 11 0.00 0.00
11:52 am 11:52 Partly Cloudy 87 30.6 71 21.7 59 59 S 13 20 29.92 1013 7 11 0.00 0.00
12:52 pm 12:52 Partly Cloudy 90 32.2 70 21.1 52 52 SSE 17 28 29.91 1013 8 13 0.00 0.00
1:52 pm 13:52 Mostly Sunny 93 33.9 69 20.6 46 46 SSE 17 28 29.88 1012 8 13 0.00 0.00
2:52 pm 14:52 Mostly Sunny 95 35 64 17.8 36 36 SSE 29 46 29.84 1011 10 16 0.00 0.00
3:52 pm 15:52 Mostly Cloudy 95 35 63 17.2 35 35 S 26 43 29.80 1009 10 16 0.00 0.00
4:52 pm 16:52 Mostly Cloudy 95 35 62 16.7 34 34 S 29 46 29.79 1009 10 16 0.00 0.00
5:52 pm 17:52 Mostly Cloudy 94 34.4 63 17.2 36 36 S 26 43 29.79 1009 10 16 0.00 0.00
6:52 pm 18:52 Mostly Cloudy 92 33.3 65 18.3 41 41 S 23 37 29.78 1009 10 16 0.00 0.00
7:52 pm 19:52 Partly Cloudy 90 32.2 64 17.8 42 42 S 20 31 29.80 1009 10 16 0.00 0.00
8:52 pm 20:52 Partly Cloudy 87 30.6 66 18.9 50 50 S 17 28 29.83 1010 10 16 0.00 0.00
9:52 pm 21:52 Clear 86 30 66 18.9 51 51 S 17 28 29.85 1011 10 16 0.00 0.00
10:52 pm 22:52 Clear 83 28.3 66 18.9 57 57 SSE 10 17 29.88 1012 10 16 0.00 0.00
11:52 pm 23:52 Clear 80 26.7 67 19.4 64 64 SSE 14 22 29.88 1012 10 16 0.00 0.00

Powered by AerisWeather